User: anonymous   Login
Location: Unspecified
(0.0000°N, 0.0000°E)
Time: 10:40:37
(UTC+00:00)
Language:

PLEIADES 1B - Orbit

View from above orbital plane
View from above orbital plane
View from above satellite
View from above satellite

Ground track
Ground track

The orbit data is extracted from the following two-line orbital elements,

1 39019U 12068A   17015.73890407  .00000011  00000-0  12179-4 0  9997
2 39019  98.1822  93.1232 0001370  79.0183 281.1172 14.58554837219490
Epoch (UTC): 15 January 2017 17:44:01
Eccentricity: 0.0001370
inclination: 98.1822°
perigee height: 697 km
apogee height: 699 km
right ascension of ascending node: 93.1232°
argument of perigee: 79.0183°
revolutions per day: 14.58554837
mean anomaly at epoch: 281.1172°
orbit number at epoch: 21949

The dashed part of the orbit path shows where the satellite is in the earth's shadow,  

DLR